Location: Ahstedt
(52.2048°N, 10.1060°E)
Time: 07:18:28
(UTC+00:00)

Cosmos 2263 Rocket - Pass Details

Date: 18 January 2026
Orbit: 821 x 849 km, 71.0° (Epoch: 18 February)

Event Time Altitude Azimuth Distance (km) Brightness Sun altitude
Exits shadow 04:02:44 14° 356° (N) 2,239 4.4 -29.4°
Drops below altitude 10° 04:04:25 10° 13° (NNE) 2,484 4.8 -29.1°
Sets 04:08:08 0° 37° (NE) 3,424 5.9 -28.5°
